Observations for Trim Patrick St
| Time | AQI | Temp °C | Hum % | Pres Pa | CO μg/m³ | H₂S μg/m³ | NO μg/m³ | NO₂ μg/m³ | O₃ μg/m³ | SO₂ μg/m³ | PM1 μg/m³ | PM2.5 μg/m³ | PM10 μg/m³ |
|---|---|---|---|---|---|---|---|---|---|---|---|---|---|
| Friday 7 August 2026 | |||||||||||||
| 10:25 | 1 | 26.5 | 42 | 68,969 | 0 | 0 | 1.35 | 7.53 | 49.95 | 7.5 | 3.71 | 9.26 | 10.18 |
| 10:24 | 1 | 26.5 | 42 | 68,985 | 0 | 0 | 1.3 | 7.73 | 37.21 | 7.13 | 2.86 | 8.44 | 9.29 |
| 10:23 | 1 | 26.5 | 44 | 69,002 | 0 | 0 | 1.27 | 7.79 | 54.12 | 8.17 | 2.86 | 9.88 | 10.87 |
| 10:22 | 1 | 26.4 | 43 | 69,027 | 0 | 0 | 1.31 | 6.33 | 65.04 | 7.99 | 3.71 | 9.2 | 10.12 |
| 10:21 | 1 | 26.3 | 43 | 69,027 | 0 | 0 | 1.37 | 10 | 54.76 | 6.23 | 2.86 | 8.43 | 9.27 |
| 10:20 | 1 | 26.2 | 47 | 69,023 | 0 | 0 | 1.39 | 9.4 | 59.06 | 6.85 | 3.71 | 9.66 | 10.63 |
| 10:19 | 1 | 26 | 43 | 69,049 | 0 | 0 | 1.55 | 7.12 | 53.16 | 7.1 | 2.86 | 8.44 | 9.28 |
| 10:18 | 1 | 25.8 | 44 | 69,053 | 0 | 0 | 1.63 | 6.06 | 53.33 | 7.05 | 2.86 | 8.38 | 9.22 |
| 10:17 | 1 | 25.7 | 45 | 69,051 | 0 | 0 | 1.62 | 10.42 | 65.74 | 6.98 | 3.71 | 9.08 | 9.99 |
| 10:16 | 1 | 25.6 | 45 | 69,049 | 0 | 0 | 1.6 | 9.18 | 66.54 | 7.09 | 2.86 | 8.29 | 9.12 |
| 10:15 | 1 | 25.5 | 44 | 69,049 | 0 | 0 | 1.66 | 5.63 | 42.14 | 6.45 | 2.86 | 8.36 | 9.19 |
| 10:14 | 1 | 25.4 | 47 | 69,051 | 0 | 0 | 1.65 | 10.01 | 62.58 | 7.57 | 3.71 | 8.9 | 9.79 |
| 10:13 | 1 | 25.4 | 45 | 69,078 | 0 | 0 | 1.67 | 8.31 | 58.3 | 8.11 | 4.57 | 9.82 | 10.8 |
| 10:12 | 1 | 25.3 | 47 | 69,086 | 0.13 | 0 | 1.75 | 9.86 | 53.94 | 9.7 | 4.57 | 10.45 | 11.5 |
| 10:10 | 1 | 25.4 | 44 | 69,069 | 0 | 0 | 1.73 | 7.32 | 61.13 | 7.06 | 2 | 9.12 | 10.03 |
| 10:09 | 1 | 25.4 | 44 | 69,074 | 0 | 0 | 1.75 | 8.46 | 57.11 | 6.78 | 4.57 | 11.42 | 12.56 |
| 10:08 | 1 | 25.4 | 44 | 69,055 | 0 | 0 | 1.74 | 8.64 | 48.47 | 6.04 | 2.86 | 8.34 | 9.18 |
| 10:07 | 1 | 25.4 | 46 | 69,059 | 0 | 0 | 1.68 | 6.34 | 49.28 | 6.2 | 2.86 | 8.18 | 9 |
| 10:06 | 1 | 25.4 | 46 | 69,065 | 0 | 0 | 1.69 | 7.54 | 56.91 | 6.57 | 2.86 | 8.95 | 9.85 |
| 10:05 | 1 | 25.3 | 45 | 69,069 | 0 | 0 | 1.79 | 7.7 | 51.78 | 5.38 | 3.71 | 9.84 | 10.82 |